Terminal Aerodrome Forecast
Issued by NWS

Home | Current Version | Previous Version | Text Only | Print | Product List | Glossary On
Versions: 1 2 3 4 5 6 7 8 9 10 11 12 13 14 15 16 17 18 19 20 21 22 23 24 25 26 27 28 29 30 31 32 33 34 35 36
000
FTUS45 KSLC 230612 AAA
TAFOGD
TAF AMD
KOGD 230612Z 2306/2406 34010KT P6SM VCTS BKN070CB BKN100
      TEMPO 2306/2307 VRB12G20KT TSRA BKN040CB
     FM230700 35002KT P6SM VCSH SCT070 BKN100
     FM230900 19006KT P6SM SHRA SCT040 BKN070
     FM231200 33012KT P6SM VCSH SCT070 BKN100
     FM231800 30010KT P6SM SCT100 BKN150
     FM240300 17004KT P6SM SCT150=

USA.gov is the U.S. government's official web portal to all federal, state and local government web resources and services.